Weather History for Cape Race, NL

Change the Weather History Date:

Sunday, November 25, 2012

  Actual Average Record
Temperature  
Mean Temperature 46 °F -  
Max Temperature 49 °F - - ()
Min Temperature 43 °F - - ()
Degree Days  
Heating Degree Days 19    
Moisture  
Dew Point 44 °F    
Average Humidity 93    
Maximum Humidity 100    
Minimum Humidity 77    
Precipitation  
Precipitation 0.28 in - - ()
Sea Level Pressure  
Sea Level Pressure 29.28 in    
Wind  
Wind Speed 17 mph ()    
Max Wind Speed 28 mph    
Max Gust Speed 38 mph    
T = Trace of Precipitation, MM = Missing Value Source: Averaged Metar Reports

Daily Weather History Graph

Daily Weather History Graph

Search for Another Location

Airport:

Trip Planner

Search our weather history database for the weather conditions in past years. The results will help you decide how hot, cold, wet, or windy it might be!

Date:

Astronomy

Nov. 25, 2012 Rise Set
Actual Time 7:19 AM NST 4:19 PM NST
Civil Twilight 6:45 AM NST 4:53 PM NST
Nautical Twilight 6:07 AM NST 5:30 PM NST
Astronomical Twilight 5:31 AM NST 6:07 PM NST
Moon 2:39 PM NST (11/25) 4:19 AM NST (11/25)
Length of Visible Light 10h 08m
Length of Day
9h 00m
Waxing Gibbous, 92% of the Moon is Illuminated
Nov 25
Waxing Gibbous
Nov 28
Full
Dec 6
Last Quarter
Dec 13
New
Dec 20
First Quarter

Hourly Weather History & Observations

Time (NST) Temp. Windchill Dew Point Humidity Pressure Visibility Wind Dir Wind Speed Gust Speed Precip Events Conditions
12:30 AM 48.4 °F - 48.0 °F 99% 29.18 in - SE 18.4 mph 28.8 mph N/A   Unknown
1:30 AM 47.7 °F - 47.5 °F 99% 29.14 in - SSE 11.5 mph - N/A   Unknown
2:30 AM 48 °F - 48 °F 98% 29.10 in - SSE 15.0 mph - -  
2:30 AM 48.0 °F - 47.7 °F 99% 29.10 in - SSE 15.0 mph 21.9 mph 0.07 in   Unknown
3:30 AM 48.9 °F - 48.7 °F 99% 29.09 in - SSE 16.1 mph 23.0 mph 0.07 in   Unknown
4:30 AM 47.5 °F - 47.3 °F 99% 29.09 in - South 15.0 mph - 0.07 in   Unknown
5:30 AM 48 °F - 48 °F 98% 29.10 in - South 16.1 mph - -  
5:30 AM 47.8 °F - 47.7 °F 99% 29.10 in - South 16.1 mph - 0.14 in   Unknown
6:30 AM 47.7 °F - 47.5 °F 99% 29.11 in - SW 13.8 mph - N/A   Unknown
7:30 AM 47.1 °F - 46.9 °F 99% 29.14 in - WSW 21.9 mph 28.8 mph N/A   Unknown
8:30 AM 45 °F - 45 °F 98% 29.19 in - West 21.9 mph - -  
8:30 AM 44.8 °F 36.4 °F 44.6 °F 99% 29.19 in - West 21.9 mph 27.6 mph N/A   Unknown
9:30 AM 44.8 °F 36.6 °F 44.6 °F 99% 29.22 in - West 20.7 mph 28.8 mph 0.03 in   Unknown
10:30 AM 45.5 °F 36.3 °F 45.3 °F 99% 29.24 in - West 27.6 mph 38.0 mph N/A   Unknown
11:30 AM 46 °F - 46 °F 100% 29.27 in - WSW 24.2 mph - -  
11:30 AM 46.2 °F 37.9 °F 46.0 °F 99% 29.27 in - WSW 24.2 mph 32.2 mph N/A   Unknown
12:30 PM 46.8 °F - 46.6 °F 99% 29.30 in - WSW 24.2 mph 31.1 mph N/A   Unknown
1:30 PM 46.0 °F 38.0 °F 45.9 °F 99% 29.30 in - WSW 21.9 mph 29.9 mph N/A   Unknown
2:30 PM 47 °F - 43 °F 82% 29.31 in - SW 21.9 mph - -  
2:30 PM 46.9 °F - 43.3 °F 87% 29.31 in - SW 21.9 mph 28.8 mph N/A   Unknown
3:30 PM 45.7 °F 38.0 °F 42.4 °F 88% 29.34 in - SW 19.6 mph 25.3 mph N/A   Unknown
4:30 PM 45.1 °F 37.6 °F 42.3 °F 90% 29.35 in - SW 18.4 mph 25.3 mph N/A   Unknown
5:30 PM 45 °F - 42 °F 86% 29.39 in - SW 19.6 mph - -  
5:30 PM 44.8 °F 36.9 °F 42.1 °F 90% 29.39 in - SW 19.6 mph - N/A   Unknown
6:30 PM 44.4 °F 37.5 °F 42.1 °F 91% 29.42 in - SW 15.0 mph - N/A   Unknown
7:30 PM 43.7 °F 35.7 °F 41.4 °F 91% 29.44 in - SW 18.4 mph 24.2 mph N/A   Unknown
8:30 PM 44 °F - 40 °F 80% 29.45 in - SW 20.7 mph - -  
8:30 PM 43.9 °F 35.4 °F 39.9 °F 86% 29.45 in - SW 20.7 mph 27.6 mph N/A   Unknown
9:30 PM 44.8 °F 36.2 °F 41.2 °F 87% 29.47 in - SSW 23.0 mph 29.9 mph N/A   Unknown
10:30 PM 43.9 °F 35.0 °F 39.0 °F 83% 29.50 in - SW 23.0 mph 31.1 mph N/A   Unknown
11:30 PM 43 °F - 38 °F 77% 29.53 in - SW 24.2 mph - -  
11:30 PM 43.2 °F 33.8 °F 38.3 °F 83% 29.53 in - SW 24.2 mph 34.5 mph N/A   Unknown